| time (UTC) | temp C | wind direction | speed KPH | gust KPH | rain 1hr cm | rain 24hr cm | rain mn cm | humidity % | barometer mb |
| 20260506133100 | 12 | 236 | 3.2 | 11.3 | 0.00 | 0.00 | 0.00 | 61 | 1014.6 |
| 20260506131556 | 12 | 273 | 6.4 | 12.9 | 0.00 | 0.00 | 0.00 | 62 | 1014.6 |
| 20260506130054 | 11 | 286 | 3.2 | 12.9 | 0.00 | 0.00 | 0.00 | 64 | 1014.6 |
| 20260506124553 | 11 | 224 | 8.0 | 16.1 | 0.00 | 0.00 | 0.00 | 66 | 1014.6 |
| 20260506123052 | 10 | 218 | 6.4 | 14.5 | 0.00 | 0.00 | 0.00 | 67 | 1014.6 |
| 20260506121552 | 10 | 241 | 4.8 | 14.5 | 0.00 | 0.00 | 0.00 | 70 | 1014.6 |
| 20260506120051 | 10 | 247 | 3.2 | 9.7 | 0.00 | 0.00 | 0.00 | 68 | 1014.7 |
| 20260506114550 | 10 | 263 | 3.2 | 11.3 | 0.00 | 0.00 | 0.00 | 67 | 1014.7 |
| 20260506113049 | 11 | 328 | 4.8 | 12.9 | 0.00 | 0.00 | 0.00 | 64 | 1014.8 |
| 20260506111547 | 11 | 40 | 3.2 | 11.3 | 0.00 | 0.00 | 0.00 | 49 | 1014.8 |
| 20260506110047 | 11 | 137 | 3.2 | 9.7 | 0.00 | 0.00 | 0.00 | 51 | 1015.0 |
| 20260506104554 | 11 | 121 | 4.8 | 12.9 | 0.00 | 0.00 | 0.00 | 49 | 1015.1 |
| 20260506103045 | 12 | 169 | 3.2 | 6.4 | 0.00 | 0.00 | 0.00 | 47 | 1015.1 |
| 20260506101541 | 10 | 120 | 4.8 | 16.1 | 0.00 | 0.00 | 0.00 | 51 | 1015.2 |
| 20260506100040 | 9 | 90 | 3.2 | 9.7 | 0.00 | 0.00 | 0.00 | 54 | 1015.2 |
| 20260506094540 | 9 | 119 | 6.4 | 14.5 | 0.00 | 0.00 | 0.00 | 52 | 1015.4 |
| 20260506093041 | 9 | 84 | 11.3 | 16.1 | 0.00 | 0.00 | 0.00 | 50 | 1015.4 |
| 20260506091536 | 10 | 80 | 6.4 | 11.3 | 0.00 | 0.00 | 0.00 | 50 | 1015.4 |
| 20260506090033 | 10 | 147 | 1.6 | 11.3 | 0.00 | 0.00 | 0.00 | 53 | 1015.5 |
| 20260506084536 | 10 | 113 | 1.6 | 4.8 | 0.00 | 0.00 | 0.00 | 64 | 1015.4 |
| 20260506083029 | 10 | 106 | 3.2 | 9.7 | 0.00 | 0.00 | 0.00 | 66 | 1015.5 |
| 20260506081525 | 9 | 182 | 1.6 | 6.4 | 0.00 | 0.00 | 0.00 | 71 | 1015.5 |
| 20260506073015 | 7 | 178 | 1.6 | 6.4 | 0.00 | 0.00 | 0.00 | 75 | 1015.5 |
| 20260506071512 | 6 | 130 | 3.2 | 6.4 | 0.00 | 0.00 | 0.00 | 76 | 1015.5 |
| 20260506061604 | 5 | 90 | 9.7 | 14.5 | 0.00 | 0.00 | 0.00 | 77 | 1015.1 |
| 20260506044550 | 5 | 103 | 6.4 | 12.9 | 0.00 | 0.00 | 0.00 | 77 | 1015.0 |
| 20260506043044 | 5 | 113 | 6.4 | 16.1 | 0.00 | 0.00 | 0.00 | 77 | 1014.9 |
| 20260506041552 | 5 | 133 | 6.4 | 20.9 | 0.00 | 0.00 | 0.00 | 77 | 1015.0 |
| 20260506040043 | 5 | 88 | 12.9 | 22.5 | 0.00 | 0.00 | 0.00 | 76 | 1015.0 |
| 20260506034546 | 5 | 96 | 8.0 | 19.3 | 0.00 | 0.00 | 0.00 | 77 | 1015.1 |
| 20260506033041 | 5 | 123 | 4.8 | 20.9 | 0.00 | 0.00 | 0.00 | 77 | 1015.2 |
| 20260506031539 | 5 | 86 | 6.4 | 16.1 | 0.00 | 0.00 | 0.00 | 77 | 1015.2 |
| 20260506030039 | 5 | 338 | 3.2 | 8.0 | 0.00 | 0.00 | 0.00 | 78 | 1015.2 |
| 20260506024537 | 5 | 72 | 3.2 | 11.3 | 0.00 | 0.00 | 0.00 | 76 | 1015.2 |
| 20260506023034 | 5 | 106 | 4.8 | 9.7 | 0.00 | 0.00 | 0.00 | 76 | 1015.2 |
| 20260506021541 | 5 | 103 | 4.8 | 12.9 | 0.00 | 0.00 | 0.00 | 77 | 1015.2 |
| 20260506020033 | 5 | 98 | 8.0 | 16.1 | 0.00 | 0.00 | 0.00 | 77 | 1015.2 |
| 20260506014532 | 5 | 123 | 4.8 | 16.1 | 0.00 | 0.00 | 0.00 | 78 | 1015.2 |
| 20260506013034 | 5 | 115 | 6.4 | 17.7 | 0.00 | 0.00 | 0.00 | 78 | 1015.2 |
| 20260506011553 | 5 | 79 | 8.0 | 16.1 | 0.00 | 0.00 | 0.00 | 77 | 1015.3 |
| 20260506010030 | 6 | 101 | 6.4 | 14.5 | 0.00 | 0.00 | 0.00 | 77 | 1015.4 |
| 20260506004540 | 5 | 88 | 8.0 | 20.9 | 0.00 | 0.00 | 0.00 | 78 | 1015.3 |
| 20260506003030 | 5 | 109 | 11.3 | 17.7 | 0.00 | 0.00 | 0.00 | 78 | 1015.3 |
| 20260506001525 | 6 | 92 | 8.0 | 16.1 | 0.00 | 0.00 | 0.00 | 78 | 1015.3 |
| 20260506000022 | 6 | 141 | 6.4 | 14.5 | 0.00 | 0.00 | 0.00 | 78 | 1015.3 |
| 20260505234521 | 6 | 84 | 6.4 | 12.9 | 0.00 | 0.00 | 0.00 | 78 | 1015.4 |
| 20260505233027 | 6 | 146 | 4.8 | 12.9 | 0.00 | 0.00 | 0.00 | 77 | 1015.4 |
| 20260505231520 | 6 | 86 | 11.3 | 14.5 | 0.00 | 0.00 | 0.00 | 77 | 1015.5 |
| 20260505230013 | 6 | 152 | 0.0 | 9.7 | 0.00 | 0.00 | 0.00 | 77 | 1015.6 |
| 20260505224512 | 6 | 97 | 3.2 | 14.5 | 0.00 | 0.00 | 0.00 | 77 | 1015.6 |
| 20260505223016 | 6 | 98 | 11.3 | 16.1 | 0.00 | 0.00 | 0.00 | 77 | 1015.5 |
| 20260505221511 | 6 | 123 | 11.3 | 17.7 | 0.00 | 0.00 | 0.00 | 77 | 1015.5 |
| 20260505220022 | 6 | 90 | 8.0 | 16.1 | 0.00 | 0.00 | 0.00 | 77 | 1015.4 |
| 20260505214609 | 6 | 88 | 6.4 | 14.5 | 0.00 | 0.00 | 0.00 | 77 | 1015.5 |
| 20260505213011 | 7 | 116 | 4.8 | 12.9 | 0.00 | 0.00 | 0.00 | 77 | 1015.4 |
| 20260505211507 | 7 | 128 | 4.8 | 11.3 | 0.00 | 0.00 | 0.00 | 77 | 1015.3 |
| 20260505210007 | 7 | 90 | 6.4 | 11.3 | 0.00 | 0.00 | 0.00 | 77 | 1015.2 |
| 20260505204505 | 7 | 134 | 3.2 | 9.7 | 0.00 | 0.00 | 0.00 | 77 | 1015.2 |
| 20260505203008 | 7 | 92 | 4.8 | 9.7 | 0.00 | 0.00 | 0.00 | 77 | 1015.2 |
| 20260505201504 | 7 | 137 | 1.6 | 14.5 | 0.00 | 0.00 | 0.00 | 77 | 1015.2 |
| 20260505200003 | 7 | 127 | 11.3 | 22.5 | 0.00 | 0.00 | 0.00 | 77 | 1015.1 |
| 20260505194503 | 7 | 121 | 9.7 | 20.9 | 0.00 | 0.00 | 0.00 | 77 | 1015.0 |
| 20260505193001 | 7 | 78 | 12.9 | 25.7 | 0.00 | 0.00 | 0.00 | 77 | 1014.9 |
| 20260505191501 | 7 | 86 | 9.7 | 22.5 | 0.00 | 0.00 | 0.00 | 76 | 1014.7 |
| 20260505190100 | 7 | 90 | 16.1 | 29.0 | 0.00 | 0.00 | 0.00 | 76 | 1014.7 |
| 20260505184600 | 8 | 83 | 12.9 | 24.1 | 0.00 | 0.00 | 0.00 | 75 | 1014.6 |
| 20260505183101 | 8 | 72 | 9.7 | 20.9 | 0.00 | 0.00 | 0.00 | 75 | 1014.6 |
| 20260505181607 | 8 | 73 | 14.5 | 27.4 | 0.00 | 0.00 | 0.00 | 75 | 1014.6 |
| 20260505180057 | 8 | 90 | 12.9 | 29.0 | 0.00 | 0.00 | 0.00 | 76 | 1014.4 |
| 20260505174557 | 9 | 82 | 17.7 | 30.6 | 0.00 | 0.00 | 0.00 | 76 | 1014.3 |
| 20260505173056 | 9 | 94 | 17.7 | 29.0 | 0.00 | 0.00 | 0.00 | 77 | 1014.3 |
| 20260505171556 | 10 | 90 | 11.3 | 20.9 | 0.00 | 0.00 | 0.00 | 76 | 1014.4 |
| 20260505170056 | 10 | 88 | 11.3 | 24.1 | 0.00 | 0.00 | 0.00 | 75 | 1014.4 |
| 20260505164601 | 10 | 88 | 11.3 | 20.9 | 0.00 | 0.00 | 0.00 | 75 | 1014.3 |
| 20260505163054 | 10 | 36 | 8.0 | 17.7 | 0.00 | 0.00 | 0.00 | 75 | 1014.2 |
| 20260505161557 | 10 | 92 | 6.4 | 19.3 | 0.00 | 0.00 | 0.00 | 76 | 1014.2 |
| 20260505153107 | 11 | 311 | 6.4 | 17.7 | 0.00 | 0.00 | 0.00 | 73 | 1014.1 |
| 20260505151551 | 11 | 297 | 8.0 | 16.1 | 0.00 | 0.00 | 0.00 | 72 | 1014.1 |